KP4DJT Weather Reports


Display with metric or nautical units.
time (UTC)temp
F
wind
direction
speed
MPH
gust
MPH
rain 1hr
in
rain 24hr
in
rain mn
in
humidity
%
barometer
mb
20260509224240 84 120 10.0 13.0 0.00 0.47 0.00 34 1007.8
20260509223220 84 160 9.0 13.0 0.00 0.47 0.00 33 1008.0
20260509222217 83 134 8.0 9.0 0.00 0.47 0.00 34 1008.2
20260509221240 83 130 7.0 10.0 0.00 0.47 0.00 34 1008.2
20260509220220 83 135 6.0 8.0 0.00 0.47 0.00 36 1008.3
20260509215237 83 168 7.0 11.0 0.00 0.47 0.00 34 1008.2
20260509214218 83 154 8.0 11.0 0.00 0.47 0.00 35 1008.2
20260509213218 83 132 6.0 9.0 0.00 0.47 0.00 36 1008.3
20260509212220 83 127 7.0 10.0 0.00 0.47 0.00 36 1008.4
20260509211218 83 136 6.0 13.0 0.00 0.47 0.00 35 1008.6
20260509210218 83 136 9.0 10.0 0.00 0.47 0.00 35 1008.7
20260509205218 83 120 6.0 9.0 0.00 0.47 0.00 36 1008.8
20260509204218 83 133 1.0 3.0 0.00 0.47 0.00 36 1008.9
20260509203218 82 168 4.0 6.0 0.00 0.47 0.00 36 1008.9
20260509202218 82 151 4.0 7.0 0.00 0.47 0.00 35 1009.0
20260509201219 82 149 7.0 10.0 0.00 0.47 0.00 35 1009.1
20260509200219 82 124 5.0 7.0 0.00 0.47 0.00 34 1009.3
20260509195219 82 130 4.0 6.0 0.00 0.47 0.00 33 1009.5
20260509194219 81 157 3.0 4.0 0.00 0.47 0.00 32 1009.5
20260509193219 82 138 6.0 8.0 0.00 0.47 0.00 32 1009.6
20260509192239 82 107 5.0 8.0 0.00 0.47 0.00 34 1009.7
20260509191219 81 97 6.0 7.0 0.00 0.47 0.00 32 1009.8
20260509190240 82 142 4.0 5.0 0.00 0.47 0.00 33 1010.0
20260509185240 81 84 3.0 5.0 0.00 0.47 0.00 28 1010.0
20260509184217 80 126 4.0 7.0 0.00 0.47 0.00 31 1010.2
20260509183217 80 146 7.0 8.0 0.00 0.47 0.00 32 1010.2
20260509182220 80 125 7.0 9.0 0.00 0.47 0.00 35 1010.3
20260509181240 80 231 5.0 8.0 0.00 0.47 0.00 38 1010.5
20260509180220 80 164 4.0 7.0 0.00 0.47 0.00 40 1010.6
20260509175218 79 213 4.0 8.0 0.00 0.47 0.00 41 1010.9
20260509174238 79 151 7.0 9.0 0.00 0.47 0.00 41 1011.1
20260509173237 78 154 4.0 6.0 0.00 0.47 0.00 33 1011.1
20260509172221 78 243 2.0 3.0 0.00 0.47 0.00 45 1011.3
20260509171218 78 165 3.0 6.0 0.00 0.47 0.00 45 1011.3
20260509170218 77 120 2.0 5.0 0.00 0.47 0.00 42 1011.4
20260509165218 76 185 5.0 9.0 0.00 0.47 0.00 50 1011.5
20260509164239 76 114 5.0 7.0 0.00 0.47 0.00 54 1011.5
20260509163219 75 170 5.0 7.0 0.00 0.47 0.00 61 1011.7
20260509162219 74 113 4.0 5.0 0.00 0.47 0.00 62 1011.8
20260509161219 73 135 5.0 8.0 0.00 0.47 0.00 65 1011.9
20260509160219 72 175 4.0 8.0 0.00 0.47 0.00 70 1011.9
20260509155219 71 129 5.0 6.0 0.00 0.47 0.00 73 1011.6
20260509154219 71 150 4.0 6.0 0.00 0.47 0.00 72 1011.8
20260509153219 70 145 5.0 6.0 0.00 0.47 0.00 71 1011.6
20260509152220 70 140 5.0 7.0 0.00 0.47 0.00 72 1011.5
20260509151220 70 140 2.0 4.0 0.00 0.47 0.00 69 1011.7
20260509150220 69 141 3.0 5.0 0.00 0.47 0.00 72 1011.6
20260509145237 68 117 4.0 6.0 0.00 0.47 0.00 75 1011.5
20260509144240 67 83 4.0 5.0 0.00 0.47 0.00 79 1011.4
20260509143220 67 66 2.0 5.0 0.00 0.47 0.00 80 1011.6
20260509142220 67 72 1.0 3.0 0.00 0.47 0.00 80 1011.7
20260509141220 66 294 0.0 1.0 0.00 0.47 0.00 83 1011.7
20260509140237 64 32 0.0 1.0 0.00 0.47 0.00 87 1011.7
20260509135217 64 21 1.0 2.0 0.00 0.47 0.00 90 1011.6
20260509134220 63 329 0.0 1.0 0.00 0.47 0.00 94 1011.6
20260509133218 62 303 1.0 2.0 0.00 0.47 0.00 96 1011.4
20260509132218 61 296 1.0 2.0 0.00 0.47 0.00 96 1011.4
20260509131218 60 12 0.0 0.0 0.00 0.47 0.00 97 1011.3
20260509130218 59 302 2.0 3.0 0.00 0.47 0.00 97 1011.1
20260509125218 59 315 0.0 1.0 0.00 0.47 0.00 98 1011.1
20260509124239 58 310 1.0 2.0 0.00 0.47 0.00 98 1010.8
20260509123218 58 350 0.0 1.0 0.00 0.47 0.00 98 1010.8
20260509122218 57 289 2.0 2.0 0.00 0.47 0.00 98 1010.7
20260509121219 56 294 0.0 2.0 0.00 0.47 0.00 98 1010.7
20260509120219 56 0.0 0.0 0.00 0.47 0.00 97 1010.6
20260509115239 55 0.0 0.0 0.00 0.47 0.00 97 1010.5
20260509114219 56 294 2.0 2.0 0.00 0.47 0.00 97 1010.5
20260509113219 56 292 1.0 2.0 0.00 0.47 0.00 97 1010.3
20260509112220 56 308 2.0 2.0 0.00 0.47 0.00 97 1010.2
20260509111239 56 0.0 0.0 0.00 0.47 0.00 97 1010.0
20260509110220 56 71 0.0 0.0 0.00 0.47 0.00 97 1010.0
20260509105220 56 0.0 0.0 0.00 0.47 0.00 96 1010.1
20260509104220 57 111 0.0 0.0 0.00 0.47 0.00 96 1010.1
20260509103220 57 0.0 0.0 0.00 0.47 0.00 96 1010.2
20260509102220 57 0.0 0.0 0.00 0.47 0.00 96 1010.2
20260509101220 57 288 1.0 2.0 0.00 0.47 0.00 96 1010.4
20260509100221 58 285 1.0 2.0 0.00 0.47 0.00 96 1010.6
20260509095220 58 0.0 0.0 0.00 0.47 0.00 96 1010.6
20260509094221 58 344 2.0 2.0 0.00 0.47 0.00 96 1010.7
20260509093221 58 313 0.0 0.0 0.00 0.47 0.00 96 1010.8
20260509092221 58 0.0 0.0 0.00 0.47 0.00 96 1010.7
20260509091221 58 353 0.0 1.0 0.00 0.47 0.00 95 1010.5
20260509090221 58 316 0.0 0.0 0.00 0.47 0.00 95 1010.7
20260509085221 58 123 0.0 0.0 0.00 0.47 0.00 95 1010.7
20260509084222 59 0.0 0.0 0.00 0.47 0.00 95 1010.5
20260509083221 59 0.0 0.0 0.00 0.47 0.00 95 1010.5
20260509082222 59 0.0 0.0 0.00 0.47 0.00 94 1010.5
20260509081222 59 115 1.0 1.0 0.00 0.47 0.00 94 1010.5
20260509080222 59 25 0.0 0.0 0.00 0.47 0.00 94 1010.7
20260509075242 59 0.0 0.0 0.00 0.47 0.00 93 1010.9
20260509074222 59 27 1.0 1.0 0.00 0.47 0.00 93 1011.0
20260509073302 59 40 0.0 1.0 0.00 0.47 0.00 93 1011.2
20260509072222 60 0.0 0.0 0.00 0.47 0.00 92 1011.2
20260509071222 60 230 1.0 2.0 0.00 0.47 0.00 92 1011.2
20260509070223 60 183 1.0 2.0 0.00 0.47 0.00 92 1011.1
20260509065223 61 240 0.0 0.0 0.00 0.47 0.00 91 1011.1
20260509064223 61 110 0.0 1.0 0.00 0.47 0.00 90 1011.0
20260509063223 61 136 2.0 2.0 0.00 0.47 0.00 89 1011.1
20260509062221 62 134 4.0 5.0 0.00 0.47 0.00 89 1011.3
20260509061244 62 106 0.0 2.0 0.00 0.47 0.00 88 1011.3
20260509060221 63 151 3.0 5.0 0.00 0.47 0.00 87 1011.3
20260509055221 62 104 4.0 5.0 0.00 0.47 0.00 88 1011.2
20260509054224 62 72 3.0 4.0 0.00 0.47 0.00 88 1011.1
20260509053224 63 73 4.0 5.0 0.00 0.47 0.00 88 1011.1
20260509052224 63 91 2.0 2.0 0.00 0.47 0.00 88 1011.1
20260509051224 63 90 2.0 2.0 0.00 0.47 0.00 88 1011.2
20260509050221 64 75 3.0 5.0 0.00 0.47 0.00 87 1011.0
20260509045222 64 76 5.0 7.0 0.00 0.47 0.47 87 1011.1
20260509044222 64 89 5.0 5.0 0.00 0.47 0.47 87 1011.3
20260509043222 64 71 4.0 6.0 0.00 0.47 0.47 86 1011.3
20260509042242 64 85 6.0 8.0 0.00 0.47 0.47 86 1011.2
20260509041225 64 114 4.0 5.0 0.00 0.47 0.47 87 1011.1
20260509040245 64 119 3.0 4.0 0.00 0.47 0.47 88 1011.1
20260509035242 64 104 2.0 3.0 0.00 0.47 0.47 88 1010.7
20260509034217 64 100 4.0 4.0 0.00 0.47 0.47 88 1010.6
20260509033220 64 148 1.0 2.0 0.00 0.47 0.47 89 1010.3
20260509032219 64 0.0 0.0 0.00 0.47 0.47 89 1010.0
20260509031220 64 104 1.0 3.0 0.00 0.47 0.47 89 1009.9
20260509030220 65 117 0.0 2.0 0.00 0.47 0.47 88 1009.6
20260509025217 65 61 1.0 2.0 0.00 0.47 0.47 88 1009.4
20260509024217 65 82 3.0 4.0 0.00 0.47 0.47 87 1009.3
20260509023220 66 67 4.0 6.0 0.00 0.47 0.47 86 1009.2
20260509022240 66 66 3.0 4.0 0.00 0.47 0.47 84 1009.1
20260509021218 67 103 6.0 8.0 0.00 0.47 0.47 83 1009.1
20260509020218 67 200 3.0 5.0 0.00 0.47 0.47 81 1008.7
20260509015218 67 237 3.0 4.0 0.00 0.47 0.47 81 1008.5
20260509014238 68 168 2.0 6.0 0.00 0.47 0.47 80 1008.3
20260509013219 68 165 2.0 4.0 0.00 0.47 0.47 79 1007.9
20260509012218 68 219 4.0 5.0 0.00 0.47 0.47 78 1007.9
20260509011218 68 221 4.0 6.0 0.00 0.47 0.47 78 1008.0
20260509010239 69 228 5.0 7.0 0.00 0.47 0.47 77 1008.1
20260509005219 69 208 7.0 9.0 0.00 0.47 0.47 78 1007.9
20260509004219 69 228 7.0 12.0 0.00 0.47 0.47 78 1007.6
20260509003219 69 231 3.0 7.0 0.00 0.47 0.47 80 1007.2
20260509002239 69 180 2.0 5.0 0.00 0.47 0.47 80 1007.2
20260509001219 69 206 3.0 5.0 0.00 0.47 0.47 78 1006.7
20260509000220 68 198 5.0 8.0 0.00 0.47 0.47 81 1006.5
20260508235220 69 190 4.0 8.0 0.27 0.47 0.47 80 1006.7
20260508234217 69 183 4.0 5.0 0.47 0.47 0.47 80 1006.5
20260508233220 69 217 5.0 8.0 0.47 0.47 0.47 79 1006.4
20260508232240 69 251 4.0 6.0 0.47 0.47 0.47 80 1006.2
20260508231240 68 237 3.0 3.0 0.46 0.46 0.46 80 1006.4
20260508230217 68 8 4.0 5.0 0.46 0.46 0.46 83 1006.4
20260508225217 75 304 14.0 26.0 0.20 0.20 0.20 75 1006.4